Weather History for KULM - July, 2013

Change the Weather History Date:

Friday, July 26, 2013

  Actual Average Record
Temperature  
Mean Temperature 62 °F -  
Max Temperature 69 °F 83 °F 99 °F (1955)
Min Temperature 53 °F 62 °F 48 °F (1962)
Degree Days  
Heating Degree Days 3    
Growing Degree Days 12 (Base 50)    
Moisture  
Dew Point 56 °F    
Average Humidity 80    
Maximum Humidity 100    
Minimum Humidity 56    
Precipitation  
Precipitation 0.11 in - - ()
Sea Level Pressure  
Sea Level Pressure 30.03 in    
Wind  
Wind Speed 11 mph (NW)    
Max Wind Speed 24 mph    
Max Gust Speed 30 mph    
Visibility 10 miles    
Events Rain    
Averages and records for this station are not official NWS values.
T = Trace of Precipitation, MM = Missing Value Source: NWS Daily Summary

Daily Weather History Graph

Daily Weather History Graph

Search for Another Location

Airport or City:

Trip Planner

Search our weather history database for the weather conditions in past years. The results will help you decide how hot, cold, wet, or windy it might be!

Date:

Astronomy

Jul. 26, 2013 Rise Set
Actual Time 5:59 AM CDT 8:49 PM CDT
Civil Twilight 5:25 AM CDT 9:23 PM CDT
Nautical Twilight 4:42 AM CDT 10:05 PM CDT
Astronomical Twilight 3:51 AM CDT 10:55 PM CDT
Moon 10:49 PM CDT (7/26) 10:49 AM CDT (7/26)
Length of Visible Light 15h 58m
Length of Day
14h 50m
Waning Gibbous, 80% of the Moon is Illuminated
Jul 26
Waning Gibbous
Jul 29
Last Quarter
Aug 6
New
Aug 14
First Quarter
Aug 20
Full

Hourly Weather History & Observations

Time (CDT) Temp. Dew Point Humidity Pressure Visibility Wind Dir Wind Speed Gust Speed Precip Events Conditions
12:13 AM 64.4 °F 64.4 °F 100% 29.94 in 10.0 mi SSW 4.6 mph - N/A   Clear
12:33 AM 64.4 °F 64.4 °F 100% 29.94 in 10.0 mi South 4.6 mph - N/A   Clear
12:53 AM 64.4 °F 64.4 °F 100% 29.95 in 10.0 mi SSW 5.8 mph - N/A   Mostly Cloudy
1:13 AM 66.2 °F 64.4 °F 94% 29.96 in 10.0 mi WNW 8.1 mph - N/A Rain Light Rain
1:33 AM 66.2 °F 66.2 °F 100% 29.95 in 10.0 mi Calm Calm - 0.10 in Rain Light Rain
1:53 AM 66.2 °F 66.2 °F 100% 29.95 in 10.0 mi West 5.8 mph - 0.10 in   Mostly Cloudy
2:13 AM 66.2 °F 66.2 °F 100% 29.94 in 10.0 mi West 5.8 mph - N/A   Mostly Cloudy
2:33 AM 66.2 °F 66.2 °F 100% 29.94 in 10.0 mi West 6.9 mph - N/A   Scattered Clouds
2:53 AM 64.4 °F 64.4 °F 100% 29.94 in 10.0 mi NW 9.2 mph - N/A   Clear
3:12 AM 64.4 °F 62.6 °F 94% 29.94 in 10.0 mi NW 10.4 mph - N/A   Clear
3:33 AM 62.6 °F 60.8 °F 94% 29.95 in 10.0 mi NW 9.2 mph - N/A   Clear
3:53 AM 62.6 °F 60.8 °F 94% 29.95 in 10.0 mi NW 10.4 mph 16.1 mph N/A   Clear
4:12 AM 60.8 °F 59.0 °F 94% 29.95 in 10.0 mi NW 11.5 mph - N/A   Clear
4:33 AM 60.8 °F 57.2 °F 88% 29.95 in 10.0 mi NW 11.5 mph - N/A   Clear
4:53 AM 59.0 °F 57.2 °F 94% 29.95 in 10.0 mi NW 9.2 mph - N/A   Clear
5:12 AM 59.0 °F 57.2 °F 94% 29.96 in 10.0 mi NW 10.4 mph - N/A   Clear
5:33 AM 57.2 °F 57.2 °F 100% 29.96 in 10.0 mi NW 10.4 mph - N/A   Clear
5:53 AM 57.2 °F 55.4 °F 94% 29.97 in 10.0 mi NW 10.4 mph - N/A   Clear
6:12 AM 57.2 °F 55.4 °F 94% 29.97 in 10.0 mi NW 16.1 mph 19.6 mph N/A   Clear
6:33 AM 57.2 °F 55.4 °F 94% 29.98 in 10.0 mi NW 15.0 mph - 0.01 in   Clear
6:53 AM 57.2 °F 55.4 °F 94% 29.98 in 10.0 mi NW 16.1 mph 23.0 mph 0.01 in   Clear
7:12 AM 57.2 °F 55.4 °F 94% 29.99 in 10.0 mi NW 16.1 mph 20.7 mph N/A   Clear
7:33 AM 57.2 °F 55.4 °F 94% 30.00 in 10.0 mi NW 18.4 mph 23.0 mph N/A   Clear
7:53 AM 57.2 °F 55.4 °F 94% 30.01 in 10.0 mi WNW 19.6 mph 24.2 mph N/A   Scattered Clouds
8:12 AM 59.0 °F 55.4 °F 88% 30.01 in 10.0 mi WNW 15.0 mph 23.0 mph N/A   Scattered Clouds
8:33 AM 59.0 °F 55.4 °F 88% 30.01 in 10.0 mi NW 19.6 mph 25.3 mph N/A   Clear
8:53 AM 60.8 °F 55.4 °F 82% 30.02 in 10.0 mi NW 16.1 mph - N/A   Mostly Cloudy
9:13 AM 59.0 °F 55.4 °F 88% 30.03 in 10.0 mi NW 16.1 mph - N/A   Overcast
9:33 AM 59.0 °F 55.4 °F 88% 30.04 in 10.0 mi NW 16.1 mph 24.2 mph N/A   Overcast
9:53 AM 59.0 °F 53.6 °F 82% 30.04 in 10.0 mi NW 15.0 mph 21.9 mph N/A   Overcast
10:13 AM 60.8 °F 55.4 °F 82% 30.03 in 10.0 mi NW 11.5 mph - N/A   Mostly Cloudy
10:33 AM 62.6 °F 55.4 °F 77% 30.03 in 10.0 mi WNW 17.3 mph 23.0 mph N/A   Mostly Cloudy
10:53 AM 62.6 °F 55.4 °F 77% 30.03 in 10.0 mi NW 15.0 mph 23.0 mph N/A   Mostly Cloudy
11:13 AM 62.6 °F 55.4 °F 77% 30.03 in 10.0 mi NW 18.4 mph 21.9 mph N/A   Scattered Clouds
11:33 AM 64.4 °F 55.4 °F 73% 30.04 in 10.0 mi WNW 17.3 mph 23.0 mph N/A   Scattered Clouds
11:52 AM 66.2 °F 57.2 °F 73% 30.04 in 10.0 mi NW 15.0 mph 24.2 mph N/A   Scattered Clouds
12:13 PM 62.6 °F 57.2 °F 82% 30.05 in 10.0 mi NW 20.7 mph 26.5 mph N/A   Light Drizzle
12:33 PM 66.2 °F 57.2 °F 73% 30.04 in 10.0 mi NW 18.4 mph 24.2 mph N/A   Clear
12:52 PM 62.6 °F 57.2 °F 82% 30.05 in 7.0 mi NW 16.1 mph 26.5 mph N/A Rain Light Rain
1:13 PM 66.2 °F 57.2 °F 73% 30.05 in 10.0 mi NW 17.3 mph 24.2 mph N/A   Scattered Clouds
1:33 PM 69.8 °F 53.6 °F 56% 30.04 in 10.0 mi NW 19.6 mph 29.9 mph N/A   Scattered Clouds
1:52 PM 69.8 °F 55.4 °F 60% 30.03 in 10.0 mi NNW 16.1 mph 25.3 mph N/A   Scattered Clouds
2:13 PM 68.0 °F 53.6 °F 60% 30.03 in 10.0 mi NW 18.4 mph 25.3 mph N/A   Scattered Clouds
2:32 PM 68.0 °F 55.4 °F 64% 30.03 in 10.0 mi NNW 18.4 mph 26.5 mph N/A   Scattered Clouds
2:53 PM 68.0 °F 55.4 °F 64% 30.02 in 10.0 mi NNW 21.9 mph 27.6 mph N/A   Scattered Clouds
3:13 PM 68.0 °F 55.4 °F 64% 30.04 in 10.0 mi NNW 19.6 mph 24.2 mph N/A   Scattered Clouds
3:32 PM 68.0 °F 51.8 °F 56% 30.04 in 10.0 mi NNW 17.3 mph 25.3 mph N/A   Mostly Cloudy
3:53 PM 66.2 °F 55.4 °F 68% 30.05 in 10.0 mi NW 18.4 mph 25.3 mph N/A   Mostly Cloudy
4:13 PM 66.2 °F 55.4 °F 68% 30.06 in 10.0 mi NW 21.9 mph - N/A   Mostly Cloudy
4:32 PM 66.2 °F 53.6 °F 64% 30.06 in 10.0 mi NW 17.3 mph 29.9 mph N/A   Mostly Cloudy
4:53 PM 64.4 °F 53.6 °F 68% 30.06 in 10.0 mi NNW 21.9 mph 25.3 mph N/A   Mostly Cloudy
5:13 PM 66.2 °F 53.6 °F 64% 30.07 in 10.0 mi NNW 12.7 mph 20.7 mph N/A   Mostly Cloudy
5:32 PM 66.2 °F 53.6 °F 64% 30.06 in 10.0 mi NNW 24.2 mph - N/A   Mostly Cloudy
5:53 PM 64.4 °F 51.8 °F 64% 30.08 in 10.0 mi NNW 10.4 mph 16.1 mph N/A   Mostly Cloudy
6:13 PM 64.4 °F 53.6 °F 68% 30.07 in 10.0 mi NNW 12.7 mph 17.3 mph N/A   Mostly Cloudy
6:32 PM 66.2 °F 53.6 °F 64% 30.06 in 10.0 mi North 13.8 mph 24.2 mph N/A   Mostly Cloudy
6:53 PM 64.4 °F 51.8 °F 64% 30.07 in 10.0 mi NNW 11.5 mph 18.4 mph N/A   Mostly Cloudy
7:13 PM 64.4 °F 51.8 °F 64% 30.07 in 10.0 mi NNW 10.4 mph 16.1 mph N/A   Mostly Cloudy
7:32 PM 64.4 °F 51.8 °F 64% 30.08 in 10.0 mi North 8.1 mph - N/A   Mostly Cloudy
7:53 PM 64.4 °F 51.8 °F 64% 30.07 in 10.0 mi North 10.4 mph - N/A   Scattered Clouds
8:13 PM 62.6 °F 51.8 °F 68% 30.08 in 10.0 mi North 8.1 mph - N/A   Clear
8:32 PM 60.8 °F 51.8 °F 72% 30.09 in 10.0 mi NNE 8.1 mph - N/A   Clear
8:53 PM 60.8 °F 51.8 °F 72% 30.09 in 10.0 mi NNE 5.8 mph - N/A   Clear
9:13 PM 59.0 °F 51.8 °F 77% 30.09 in 10.0 mi NNE 3.5 mph - N/A   Clear
9:33 PM 57.2 °F 51.8 °F 82% 30.10 in 10.0 mi Calm Calm - N/A   Scattered Clouds
9:53 PM 57.2 °F 51.8 °F 82% 30.10 in 10.0 mi Calm Calm - N/A   Mostly Cloudy
10:13 PM 60.8 °F 48.2 °F 63% 30.10 in 10.0 mi North 8.1 mph - N/A   Mostly Cloudy
10:33 PM 59.0 °F 48.2 °F 67% 30.10 in 10.0 mi North 8.1 mph - N/A   Mostly Cloudy
10:53 PM 57.2 °F 48.2 °F 72% 30.11 in 10.0 mi North 6.9 mph - N/A   Scattered Clouds
11:13 PM 57.2 °F 48.2 °F 72% 30.11 in 10.0 mi North 5.8 mph - N/A   Clear
11:33 PM 55.4 °F 48.2 °F 77% 30.11 in 10.0 mi North 3.5 mph - N/A   Clear
11:53 PM 53.6 °F 48.2 °F 82% 30.11 in 10.0 mi North 3.5 mph - N/A   Clear